Theta_e
312 312 311 310 312 312 309 308 308 306 306 306 307 306 307 307 306 307 307 307 307 307 307 307 308 308 309 310 311 313 314 315 317 320 324 322 317 315 313 311 312 312 315 316 316 315 315 315 314 314 315 317 320 322 322 321 329 339 336 324 321 322 318 318 320 323 323 319 318 316 318 319 317 318 317 315 317 316 315 314 312 311 311 311 311 312 313 315
311 310 309 308 310 310 309 308 308 307 307 307 307 307 307 307 307 307 307 308 307 307 307 307 308 309 310 312 313 315 314 315 320 321 318 316 314 314 312 311 312 313 315 315 315 315 315 315 314 314 316 319 320 321 322 324 328 332 333 326 320 322 320 318 318 320 320 319 319 318 319 320 318 318 317 316 316 316 318 315 312 312 311 311 311 312 314 314
312 311 310 308 309 310 309 309 308 307 307 307 306 307 307 307 307 307 308 308 308 307 307 308 309 310 312 314 315 315 315 318 323 321 315 314 313 312 311 312 312 313 314 315 315 315 315 315 314 315 317 318 319 322 325 326 325 327 334 328 319 320 319 316 319 318 318 319 320 319 319 319 318 317 317 317 316 317 320 317 315 314 312 312 312 311 313 314
312 312 312 311 311 311 310 309 309 309 308 307 307 307 308 308 308 308 307 308 308 308 308 309 309 312 314 315 315 314 317 322 323 319 314 313 313 311 312 313 313 314 315 315 316 315 315 315 314 315 317 318 319 323 324 323 323 325 329 324 317 320 320 318 319 319 318 319 320 319 317 317 317 317 317 317 316 318 318 316 317 316 312 313 312 310 312 312
311 312 312 312 312 312 312 311 310 311 310 308 308 307 308 309 309 309 309 308 309 309 310 310 312 314 314 315 315 314 319 322 319 316 314 313 312 313 313 314 314 314 316 316 316 316 316 315 315 317 317 317 321 322 320 319 322 323 321 320 319 320 320 318 319 320 319 319 320 319 317 317 316 317 318 317 318 321 318 314 314 314 311 312 312 310 311 311
311 311 311 312 311 311 312 310 310 311 311 309 309 309 308 309 309 310 310 310 310 310 311 312 314 314 314 315 314 316 321 319 317 316 314 312 312 313 314 314 314 314 316 317 316 316 317 316 316 318 318 316 320 322 319 317 322 324 320 318 320 320 319 318 319 320 319 319 319 318 317 316 317 317 318 319 319 318 315 312 312 311 310 311 310 310 310 310
311 311 311 310 308 309 309 309 310 310 309 310 310 309 309 309 309 309 310 311 310 312 312 313 314 314 315 314 316 325 326 320 318 316 313 313 312 313 313 313 313 315 316 316 315 316 317 318 316 316 319 318 318 320 318 318 321 324 321 318 319 319 319 319 320 319 318 319 317 316 316 316 318 316 319 322 316 313 311 309 309 309 309 309 310 309 309 309
311 311 311 310 309 310 308 308 309 309 309 310 310 310 310 310 309 309 310 311 311 312 313 314 314 315 314 313 321 330 328 323 318 315 314 313 312 312 313 313 313 315 316 315 316 316 316 318 316 315 318 317 317 317 318 319 321 322 320 318 319 318 319 321 321 319 318 318 316 316 317 318 319 315 318 320 312 310 310 307 307 308 308 309 310 310 308 308
311 311 312 311 311 311 311 309 309 308 308 309 310 310 310 309 309 309 311 311 312 313 314 315 315 314 314 317 322 324 323 321 316 315 315 313 314 314 314 315 314 315 316 315 315 316 317 317 317 317 317 316 317 317 318 321 320 319 319 318 319 318 318 320 321 319 319 318 317 317 318 319 318 314 316 316 310 310 309 309 310 309 310 310 311 309 307 308
311 311 311 311 311 311 312 311 310 309 308 308 309 309 310 309 309 310 311 312 313 314 314 314 314 314 315 320 325 323 320 319 315 315 315 315 317 315 316 317 316 316 316 316 316 317 317 317 317 316 316 317 317 317 318 320 319 317 319 319 319 320 319 318 319 320 319 318 317 317 318 318 316 315 317 314 309 310 310 310 310 311 311 311 310 308 307 307
310 310 310 310 310 311 312 312 311 310 310 308 307 308 309 309 309 310 312 313 314 314 314 315 314 314 315 318 325 324 320 319 317 317 317 317 318 316 317 316 315 316 316 317 317 316 316 316 315 315 316 317 316 318 317 318 317 317 318 318 321 321 319 318 318 319 317 316 318 318 317 316 314 315 318 314 309 309 310 310 310 311 311 311 311 309 306 307
311 309 310 309 309 310 312 312 312 311 311 310 308 307 308 308 309 311 312 313 314 314 315 315 314 315 316 319 324 323 320 320 319 319 319 318 317 317 317 315 315 316 317 318 318 316 315 315 316 316 317 316 317 318 317 316 316 317 317 319 323 322 320 320 318 319 318 316 318 316 316 318 315 315 317 312 308 309 310 311 311 311 311 311 312 310 307 306
313 311 310 310 309 309 311 313 312 312 311 311 310 308 307 308 309 311 313 314 315 315 315 316 315 315 317 320 321 320 321 321 318 318 318 318 317 317 317 314 314 315 316 318 319 316 313 314 316 317 317 317 318 316 316 316 316 318 317 317 322 323 325 322 317 318 318 316 317 315 318 325 321 315 313 309 309 310 310 311 311 310 311 311 311 311 309 306
313 312 312 311 310 309 311 313 313 312 311 310 310 309 307 308 310 313 314 315 316 316 316 316 316 317 318 319 318 319 321 319 318 317 317 317 317 317 316 315 314 314 315 316 317 315 313 314 315 317 316 317 317 315 317 317 317 320 319 322 322 321 330 326 315 318 317 315 316 316 319 325 324 315 310 309 309 310 311 311 310 310 310 310 310 310 310 306
314 314 313 312 311 310 310 311 312 311 310 309 309 308 308 310 312 315 315 315 316 316 316 316 315 318 321 320 317 317 319 318 317 316 316 318 317 316 315 315 315 314 315 315 315 313 313 315 315 317 316 316 317 317 323 324 322 320 319 330 328 320 332 329 314 318 318 314 314 316 319 321 321 316 310 310 310 311 311 310 310 310 309 309 309 310 309 306
315 314 313 313 312 311 309 310 311 310 310 310 309 309 310 312 315 316 316 316 315 316 318 319 316 317 320 321 317 317 317 317 318 317 317 318 317 317 316 315 315 314 314 314 313 314 314 317 318 318 317 317 320 324 332 332 331 326 320 330 331 321 327 325 316 318 318 315 313 315 320 321 320 316 311 310 310 311 311 310 310 309 309 309 308 308 308 306
315 315 314 313 312 312 310 310 310 310 310 310 310 311 313 315 316 316 317 316 315 316 318 319 316 315 316 316 316 319 319 317 318 317 317 319 318 317 315 315 315 314 314 314 314 315 315 317 317 318 319 319 323 329 333 329 331 332 322 322 328 325 323 322 321 319 317 317 315 314 317 319 319 315 311 311 310 311 311 310 310 309 308 309 309 308 307 307
316 315 314 314 313 312 311 311 311 310 311 311 311 315 316 316 316 317 317 315 315 315 314 317 315 313 314 314 315 319 320 318 319 318 317 318 317 316 316 315 315 314 315 316 316 316 317 320 321 321 322 320 320 326 329 327 331 335 328 324 326 326 324 323 323 319 316 317 316 316 316 316 317 315 311 310 309 311 311 310 310 309 309 308 308 308 307 307
316 315 315 314 314 313 311 312 312 311 312 313 315 317 315 315 316 318 318 317 319 315 311 318 317 313 315 317 318 319 319 319 319 317 316 317 317 316 316 315 316 317 318 320 319 318 321 324 325 324 323 322 320 322 326 328 332 334 332 331 328 326 325 324 322 319 317 316 317 317 316 316 316 316 314 310 310 310 310 311 310 310 309 308 308 307 307 307
316 316 315 315 314 313 312 312 311 311 312 314 317 317 317 320 318 318 320 321 323 319 315 318 317 316 319 320 320 319 318 318 318 318 316 316 317 316 316 316 318 319 320 324 323 319 321 325 326 325 324 322 320 320 321 323 326 324 324 327 327 325 325 325 323 319 316 318 320 318 317 318 317 318 318 312 310 310 310 310 311 311 309 308 308 308 308 307
317 316 316 315 314 313 313 312 311 312 312 314 317 319 323 324 317 316 323 324 321 318 319 319 315 316 319 318 318 317 318 318 317 317 315 315 316 316 317 318 319 321 322 326 324 319 319 323 325 325 322 320 320 320 319 319 321 321 321 322 324 325 324 325 321 318 317 318 323 323 318 320 319 319 320 314 310 311 310 310 310 310 309 309 308 308 308 306
317 317 316 316 315 314 314 312 311 313 313 314 315 319 321 320 316 315 319 324 323 319 319 319 316 317 317 317 316 316 319 321 319 318 316 315 316 317 319 320 321 323 323 323 325 322 321 324 322 320 320 320 322 321 319 320 320 322 323 321 324 327 325 325 323 318 317 319 325 327 322 321 320 319 320 317 313 311 310 310 310 310 310 309 308 308 308 306
318 317 317 316 315 314 314 312 312 314 313 313 315 317 319 317 316 316 316 323 327 323 321 321 319 317 317 317 316 317 320 322 324 322 317 315 317 320 320 320 321 322 321 322 325 325 326 328 324 318 319 321 322 321 320 321 321 324 324 321 325 328 324 325 325 320 317 319 322 324 322 319 318 319 320 318 314 312 311 310 311 312 311 309 308 308 308 305
318 317 317 317 316 315 314 312 313 315 313 313 315 317 319 318 317 318 320 324 324 323 322 320 318 316 317 318 316 317 319 320 324 323 317 316 318 320 320 319 320 320 320 321 323 324 325 327 324 321 320 321 322 322 322 321 324 328 328 324 326 327 324 324 324 321 322 324 321 320 323 325 323 321 320 319 315 312 313 312 312 314 314 310 309 308 306 305
318 317 317 317 316 315 313 313 315 315 314 313 314 315 319 319 317 318 322 323 321 323 321 318 319 318 316 317 316 318 318 318 322 321 316 316 317 319 319 317 319 321 320 320 321 322 322 321 322 323 322 322 322 322 326 327 324 327 330 328 325 325 325 325 324 323 328 333 327 321 328 336 335 328 324 322 319 316 316 315 313 315 315 312 310 309 306 305
318 318 317 317 316 314 312 314 316 315 315 313 313 314 318 319 318 317 317 319 319 320 320 318 320 320 317 317 316 317 318 318 319 319 316 316 317 318 320 318 318 320 320 319 320 321 321 320 321 323 324 325 324 323 328 328 323 325 329 330 327 324 324 324 323 324 331 335 326 321 329 334 331 326 324 325 322 319 318 315 314 314 314 311 310 308 306 305
318 318 317 317 316 314 313 315 316 315 315 314 313 314 317 317 318 316 314 318 319 318 321 320 316 317 319 317 315 316 318 318 318 317 315 316 317 317 320 320 319 319 319 320 322 323 322 321 323 324 326 327 325 325 327 325 326 330 328 331 331 325 324 326 324 326 333 333 326 324 328 328 326 324 323 323 324 322 318 315 314 313 311 310 309 308 306 305
319 318 318 317 316 314 314 315 316 315 315 314 313 314 316 317 317 317 315 317 319 319 322 321 315 315 317 315 315 317 317 319 321 318 314 315 316 317 319 320 320 320 320 321 324 324 322 323 325 325 324 326 326 328 330 324 325 329 327 331 333 328 329 331 328 328 329 328 328 328 326 326 329 329 325 321 322 323 320 317 314 311 310 310 309 308 306 305
319 319 318 317 317 314 314 316 316 315 314 314 315 315 316 317 316 319 318 314 319 323 320 319 318 316 318 316 316 318 318 318 320 318 315 314 315 317 318 319 319 319 319 320 323 325 325 322 324 326 325 326 327 329 330 326 323 325 326 330 334 333 333 331 329 329 328 327 329 328 326 326 329 330 326 322 323 325 321 318 315 311 310 309 308 307 306 305
319 319 318 317 317 315 314 315 315 315 314 315 316 316 317 317 314 317 319 313 317 325 318 317 320 319 318 318 317 319 320 319 317 316 316 316 316 316 316 317 319 322 324 325 324 323 321 316 317 324 324 324 326 323 323 325 323 324 328 333 335 333 332 332 330 328 328 327 327 328 327 325 329 333 329 324 326 326 322 320 319 314 311 309 308 306 305 304
320 319 319 317 316 314 314 315 316 316 316 316 317 317 317 319 317 316 319 313 311 320 318 317 320 319 318 319 319 320 321 319 316 317 318 318 318 318 318 319 321 325 326 326 327 322 319 319 320 321 320 322 326 321 320 325 324 326 333 333 331 331 332 331 326 325 328 329 328 327 325 323 327 333 332 325 324 324 323 322 322 319 313 309 308 306 305 304
320 319 319 318 316 315 314 315 316 317 317 316 318 318 317 320 321 318 316 311 311 320 322 321 321 320 318 320 321 320 321 320 317 318 320 318 319 319 319 321 322 323 324 324 326 324 322 324 324 320 317 321 327 324 322 325 325 327 330 329 327 328 331 331 327 326 327 327 325 323 323 324 325 326 327 325 322 323 325 322 321 320 314 309 308 306 304 303
320 319 318 318 317 315 314 315 316 317 317 317 317 319 318 318 319 318 314 312 316 323 323 323 322 320 320 322 323 320 320 322 318 318 319 318 320 319 318 321 321 324 330 326 322 324 326 326 323 319 319 321 324 324 323 324 324 324 324 327 328 327 330 333 330 328 329 328 323 318 322 326 326 326 324 323 321 321 323 322 320 318 314 310 307 305 304 303
320 319 318 318 317 316 314 314 317 317 316 317 318 320 320 317 317 318 315 313 318 324 323 323 322 320 320 323 324 321 321 322 318 318 321 319 321 321 320 321 318 322 331 327 321 324 328 328 325 321 321 323 320 321 325 325 323 321 322 327 329 330 335 335 332 331 332 331 322 316 323 330 331 329 323 320 320 319 320 320 317 314 311 309 306 305 304 302
320 318 318 317 316 316 314 314 316 317 316 317 319 322 320 316 315 317 316 313 315 323 324 322 322 322 322 324 324 321 324 324 318 319 322 320 321 321 320 320 317 320 327 325 323 323 323 329 329 321 320 322 319 321 324 324 321 321 324 326 327 330 332 330 329 327 325 327 323 320 326 330 327 323 319 317 316 316 317 317 314 313 310 308 306 304 303 302
319 318 317 317 316 315 314 314 316 317 316 317 320 322 320 317 316 316 316 314 312 320 324 322 323 325 324 325 324 321 323 326 321 320 322 320 320 320 319 320 317 318 321 322 326 326 324 329 325 317 318 319 319 322 322 323 324 322 323 324 324 327 328 328 328 324 321 326 327 323 326 328 324 321 319 317 316 315 316 314 313 313 309 307 306 304 303 302
318 317 317 316 316 316 315 315 316 316 317 318 321 322 320 318 317 315 314 314 312 317 323 322 324 326 324 325 326 323 322 325 321 321 323 321 321 321 319 320 319 317 318 320 326 329 329 329 322 318 321 318 316 321 322 322 324 323 324 323 321 325 329 330 331 328 327 329 327 324 326 327 325 324 320 316 316 319 318 313 311 310 308 307 306 303 303 302
317 316 317 317 316 316 315 315 316 316 317 320 320 320 319 318 317 315 313 313 315 319 322 320 320 325 325 325 326 324 322 325 322 321 324 322 323 323 320 321 321 317 317 319 324 329 328 329 323 318 321 318 315 320 322 320 319 322 325 323 324 330 330 328 329 330 331 331 329 329 327 325 324 325 323 318 318 321 319 314 312 310 308 306 305 304 302 301
316 317 317 317 316 316 315 315 316 317 319 321 319 319 319 318 317 316 315 313 316 320 319 318 320 323 325 324 325 324 322 324 322 321 325 323 323 324 320 321 322 318 317 318 322 327 327 328 326 318 317 318 316 320 325 322 318 320 320 318 323 329 328 327 327 328 331 331 330 331 328 325 324 324 325 323 321 320 318 314 312 310 308 306 305 304 302 301
316 318 319 318 316 316 315 315 316 318 321 321 318 317 317 318 317 316 316 314 317 321 318 318 320 321 324 325 325 324 323 323 321 321 324 323 323 323 320 321 323 320 317 317 321 326 325 326 327 319 316 319 319 321 324 322 319 320 320 320 322 322 323 326 325 326 331 331 331 330 327 327 328 323 321 322 323 320 317 315 313 309 307 306 305 303 302 301
315 317 318 317 317 316 316 316 318 319 321 320 318 316 316 317 318 317 315 314 320 324 321 319 320 319 322 324 324 324 323 322 321 321 323 322 322 324 322 321 322 321 319 319 321 324 325 327 328 322 318 320 323 322 319 319 320 320 320 321 321 321 323 326 325 325 326 327 330 330 327 328 329 323 318 318 320 318 315 315 313 310 308 307 305 303 302 301
315 316 317 317 317 316 317 319 319 319 320 318 317 317 316 317 319 318 316 316 319 323 322 322 322 319 319 322 324 324 323 322 322 321 322 322 321 324 324 321 321 320 319 320 320 322 326 328 329 325 320 319 321 320 319 320 321 319 320 322 321 320 323 325 326 326 324 324 326 327 327 326 321 320 321 319 320 319 315 314 313 312 309 307 305 304 302 301
315 315 317 318 317 316 318 320 320 319 318 316 316 318 317 317 318 318 317 316 318 320 321 323 323 321 321 321 323 324 323 323 322 321 322 322 320 321 323 322 321 320 320 322 321 322 325 326 326 327 324 318 318 320 321 320 319 319 322 323 321 319 320 323 326 327 326 326 324 324 327 324 317 318 321 321 321 321 316 313 313 313 310 307 306 304 303 302
316 315 316 318 317 317 319 321 320 317 316 316 316 318 318 317 318 319 318 318 317 319 320 320 322 323 323 324 325 325 325 324 323 322 322 323 323 323 323 323 322 321 321 323 322 322 325 326 326 329 328 324 322 323 322 319 318 320 322 321 318 319 320 321 324 325 324 325 325 325 326 324 319 318 318 319 319 318 317 315 313 313 312 308 306 304 303 302
316 316 316 317 317 317 320 320 319 316 314 315 316 317 317 318 318 318 319 319 318 319 319 319 320 323 324 327 328 326 325 326 327 326 324 323 324 326 325 323 322 321 321 323 322 322 325 326 326 327 329 328 327 327 325 321 318 319 321 320 318 319 320 321 323 324 323 324 325 325 324 324 323 319 317 318 318 317 318 318 314 313 312 308 306 305 303 302
315 316 317 317 317 317 319 320 319 317 315 315 316 316 317 318 318 317 319 320 319 319 320 320 321 322 323 325 326 326 325 325 327 328 325 325 327 327 324 323 322 321 323 325 323 322 324 323 324 326 327 327 327 326 325 323 320 319 321 320 319 319 319 320 322 323 324 325 324 323 323 324 323 321 320 321 321 319 320 319 316 314 311 309 307 306 304 302
315 315 316 317 317 317 317 318 319 319 317 317 317 316 317 318 318 318 318 319 319 319 320 320 321 322 322 323 324 326 325 323 325 325 325 326 328 325 322 322 322 321 323 323 321 323 327 324 323 326 326 325 325 324 323 322 321 321 320 319 319 318 319 321 321 322 324 326 325 322 323 323 322 321 322 323 321 320 319 318 316 313 310 308 306 306 305 303
315 314 315 316 317 318 316 315 317 319 318 318 317 316 317 317 317 318 319 318 319 320 321 321 321 322 322 322 322 324 323 323 324 324 323 324 325 325 323 322 320 317 319 320 318 322 327 324 323 325 324 323 323 322 322 322 321 320 320 319 319 318 318 320 320 320 322 324 324 323 324 324 321 320 321 321 320 320 318 315 313 311 310 307 306 306 305 303
314 315 315 315 316 319 318 315 315 317 318 317 317 317 317 317 317 317 318 318 318 319 320 321 321 321 322 321 321 322 322 323 324 323 323 323 324 325 324 322 319 315 316 319 318 319 322 322 322 324 323 323 323 321 322 322 321 320 320 319 318 318 318 318 319 319 320 321 321 322 324 323 320 322 323 320 318 317 316 314 312 312 311 309 307 307 305 303
312 313 314 315 315 317 319 317 316 317 317 317 316 317 316 317 317 317 318 319 319 319 319 320 320 320 320 321 321 322 321 322 323 322 322 322 322 323 323 325 324 317 313 316 318 316 317 322 324 323 323 323 322 321 322 322 322 322 321 319 318 317 317 317 318 318 319 320 319 320 322 321 319 322 324 321 316 315 315 315 313 312 312 309 307 306 305 303
308 307 308 312 314 316 316 316 316 316 317 316 316 316 316 316 316 317 317 318 318 319 319 319 319 320 320 320 321 321 320 320 320 321 322 323 323 323 323 324 325 320 315 316 318 316 316 321 324 323 323 323 322 322 322 322 321 321 321 321 319 318 317 316 317 318 318 319 320 320 321 320 319 321 321 320 318 316 316 315 312 311 311 309 307 306 305 304
306 305 306 309 312 314 314 315 316 316 316 317 315 315 316 316 316 317 318 318 318 319 319 319 319 320 321 321 320 320 321 321 322 322 323 323 322 323 323 321 322 323 319 316 316 316 317 320 321 322 323 323 322 323 322 321 322 323 322 322 320 320 318 317 317 317 317 318 319 320 320 318 319 321 321 320 319 318 316 315 312 311 309 307 307 306 304 303
Wind_Speed
0 0 0 1 1 1 0 1 0 1 1 1 1 1 1 2 2 3 3 3 3 4 4 4 4 5 6 7 8 9 10 9 6 3 1 2 1 1 1 1 3 3 3 4 8 9 11 9 5 8 6 2 2 1 2 2 2 5 3 4 1 0 1 2 1 3 4 5 4 3 3 6 4 0 0 3 8 5 5 6 4 7 7 7 9 9 8 8
0 1 1 1 0 1 1 1 1 1 0 0 0 1 1 2 3 3 3 3 3 4 3 4 4 5 7 7 9 9 10 9 3 3 2 0 2 3 3 3 4 3 4 5 8 10 8 6 8 9 6 2 2 2 2 2 3 4 3 4 0 2 1 2 2 2 3 6 5 3 4 6 6 3 1 2 4 4 5 4 3 6 6 6 9 12 11 12
1 1 1 1 1 2 1 1 1 1 1 0 1 1 2 2 2 3 3 3 3 3 3 4 4 6 7 8 9 9 10 6 1 1 1 4 5 5 5 5 4 3 5 5 6 9 6 6 10 6 3 1 2 2 3 2 2 2 4 4 2 4 2 4 4 4 2 6 7 3 4 5 3 2 2 3 5 5 4 3 3 4 4 4 6 12 14 14
2 1 0 1 2 2 2 2 2 2 1 1 1 1 2 2 2 2 3 2 2 3 3 4 5 6 7 9 9 9 9 4 1 1 3 6 6 7 7 7 6 5 5 6 5 6 7 9 9 3 3 1 3 3 3 2 1 2 3 4 4 3 3 3 3 5 3 6 7 4 4 4 2 1 3 4 4 1 3 4 4 7 8 7 5 10 14 14
3 2 1 1 1 1 2 1 1 2 2 1 1 1 1 1 1 1 2 2 2 3 3 4 5 6 7 9 8 9 6 3 2 4 5 6 6 8 8 7 7 6 6 6 6 7 7 8 5 3 3 1 3 4 1 2 3 3 1 4 3 4 3 3 2 4 3 5 6 5 4 1 1 0 2 5 4 4 4 4 4 8 9 8 7 10 13 13
3 2 1 1 1 1 2 1 2 3 3 2 1 1 1 1 1 1 1 2 2 3 4 4 5 6 6 7 8 6 2 1 3 6 6 6 8 8 7 6 5 6 6 6 8 8 6 5 4 3 2 2 1 3 1 3 4 3 1 1 3 4 4 3 1 2 3 6 4 4 2 1 3 2 2 5 4 4 5 6 7 8 10 11 10 10 10 10
3 2 3 2 2 3 3 3 4 4 3 3 2 1 1 1 1 2 2 2 3 3 4 4 5 6 5 6 6 3 3 1 4 8 7 7 7 7 6 4 4 4 5 7 10 7 5 6 4 0 2 3 2 3 1 3 5 5 0 2 3 2 5 4 3 2 4 5 3 3 2 2 4 2 0 4 3 4 7 8 9 10 12 13 10 8 8 10
4 3 3 3 3 3 4 4 5 5 4 3 3 2 2 2 2 2 2 3 3 3 4 4 5 5 5 4 2 3 1 2 6 9 7 7 7 6 5 3 2 2 4 6 7 5 3 5 3 1 4 2 2 2 1 4 5 4 1 1 1 0 3 5 5 3 2 3 2 3 1 4 6 4 1 4 5 5 7 8 9 9 10 10 7 7 8 9
6 5 4 4 4 4 4 5 5 6 5 4 4 3 3 3 3 3 3 3 3 3 4 3 5 4 5 3 3 2 2 4 9 10 8 7 6 5 4 2 2 1 3 3 4 5 2 2 2 2 2 1 2 2 1 4 2 1 2 1 1 2 3 5 5 5 4 3 2 3 3 6 4 3 2 4 8 6 6 7 6 7 7 7 6 6 8 8
7 6 5 5 5 4 4 5 6 6 6 5 5 4 4 3 3 3 3 3 3 3 3 3 4 3 3 3 4 1 2 5 9 10 8 7 5 5 4 3 3 2 2 2 3 5 2 1 2 1 3 1 2 1 2 4 2 2 2 2 2 5 5 3 5 6 5 3 4 5 4 5 3 2 3 3 7 7 7 7 5 7 6 6 5 6 9 9
10 9 7 6 6 5 5 5 6 6 6 6 6 5 5 4 3 3 2 2 2 3 3 3 3 2 1 3 4 2 4 6 8 9 8 7 7 6 5 4 4 3 1 2 3 4 3 2 4 2 2 1 1 2 2 1 1 1 3 4 6 5 5 4 6 6 4 2 5 7 3 3 2 2 5 6 8 7 8 8 6 7 6 6 6 5 8 9
12 12 10 8 8 6 5 6 6 6 7 7 7 6 5 4 3 3 2 1 1 2 2 3 3 2 1 3 2 4 5 7 8 8 8 7 7 6 4 4 4 3 1 3 3 3 4 4 6 4 0 1 2 2 1 2 1 1 3 2 7 6 5 7 6 5 6 3 5 7 2 4 3 4 3 7 9 7 8 8 6 7 6 6 6 5 6 9
11 11 11 11 11 9 6 6 7 7 7 7 7 6 5 4 3 2 1 1 1 2 2 2 2 1 2 0 3 5 7 8 8 7 7 7 6 5 4 4 4 3 1 2 2 3 4 3 6 4 1 3 1 0 1 0 1 1 1 2 3 6 5 7 4 6 7 3 5 7 2 6 6 5 3 7 9 8 8 7 6 6 6 6 5 5 5 8
12 11 11 11 12 12 9 7 7 7 8 8 7 6 5 4 2 1 1 1 1 2 2 1 1 1 2 1 3 5 9 8 8 7 8 7 7 6 5 4 4 3 2 1 1 3 3 2 4 3 1 3 1 0 2 3 2 1 1 1 1 2 5 7 1 8 7 1 4 7 1 6 7 5 5 7 8 9 8 8 7 6 6 6 5 5 5 6
13 12 12 11 11 12 10 8 8 8 9 9 7 5 3 2 1 1 1 1 1 2 1 1 2 2 2 3 3 5 8 7 8 9 9 8 7 6 5 5 4 2 1 0 0 1 1 2 4 3 1 1 2 3 3 3 2 1 1 3 2 2 5 6 1 8 7 1 3 6 2 7 7 5 7 6 7 8 8 8 8 7 7 7 6 6 5 5
14 14 13 12 12 11 10 10 8 7 7 8 6 4 1 1 1 2 2 2 1 2 2 1 1 3 1 2 1 4 6 6 8 10 9 8 7 6 7 6 4 4 2 2 2 2 3 4 3 2 1 1 3 4 3 4 4 2 2 3 2 2 3 4 2 4 7 4 2 3 3 4 5 5 7 7 8 8 7 8 9 8 8 8 6 6 6 5
14 14 13 13 12 10 9 10 8 6 6 5 4 1 2 2 1 2 2 2 2 2 2 2 1 1 0 1 1 3 5 7 10 11 10 8 8 9 8 5 4 5 4 4 3 2 2 3 1 1 2 2 2 5 4 2 4 4 0 3 4 3 2 2 4 4 5 6 4 5 4 6 5 4 8 8 9 9 8 9 10 9 8 7 7 6 6 6
15 14 13 13 12 10 8 9 8 6 3 2 1 2 4 3 2 2 3 4 4 3 1 1 2 0 3 3 3 3 5 10 12 12 11 10 10 9 6 4 4 5 5 4 2 2 2 2 2 1 2 1 1 5 3 4 4 3 3 2 4 3 2 3 4 3 6 5 4 5 5 10 9 5 7 8 9 10 10 10 9 9 9 8 8 7 7 7
17 15 14 13 12 10 8 8 7 4 1 2 3 4 5 4 2 1 2 3 3 3 1 4 4 2 3 4 4 4 8 12 10 9 11 10 10 8 4 4 6 6 4 2 2 0 2 3 4 2 2 3 5 6 7 8 7 6 5 4 4 3 4 4 4 4 7 5 5 7 7 10 11 8 8 8 9 10 10 7 6 7 8 7 7 7 8 8
19 17 15 13 12 11 9 9 9 4 1 2 3 4 3 3 2 1 2 2 4 5 1 4 7 3 1 2 5 9 10 9 4 5 11 11 10 9 3 3 5 4 2 4 2 1 3 3 2 4 7 7 8 9 9 8 6 4 3 3 4 4 5 4 3 4 4 4 6 8 8 9 9 9 9 9 8 9 10 9 8 8 8 9 9 9 8 7
19 18 16 13 12 11 10 10 10 4 1 2 2 2 2 2 2 1 2 3 10 13 8 5 9 4 1 6 12 14 8 3 2 4 12 12 10 9 2 2 5 1 2 4 2 1 3 4 7 8 8 8 8 9 9 7 6 6 4 4 4 3 5 5 3 3 2 2 6 5 6 9 9 9 8 7 8 11 13 12 12 11 10 9 9 9 7 6
20 19 17 15 12 11 11 10 8 5 4 4 2 3 2 0 2 2 2 2 9 15 14 10 8 6 2 7 15 13 4 3 2 3 11 10 6 6 2 3 5 3 3 3 2 0 2 4 9 10 7 6 7 7 7 8 7 7 5 3 5 4 4 5 4 2 0 2 4 5 5 8 9 9 8 7 11 12 14 16 14 13 13 11 11 10 9 8
21 19 17 16 13 11 10 8 8 6 7 8 5 5 2 1 3 3 3 0 6 8 9 9 9 8 5 4 11 11 3 5 5 5 11 10 4 5 5 5 6 4 3 4 5 4 3 6 10 10 7 6 7 7 6 6 5 5 4 3 4 4 2 3 5 4 2 1 2 4 5 7 8 7 9 11 11 9 10 13 12 10 12 13 12 11 12 13
22 20 18 17 14 12 9 9 10 9 12 12 12 10 5 3 3 3 1 0 5 5 6 12 10 8 9 6 11 12 3 4 5 6 14 12 5 3 5 6 6 5 4 8 9 7 7 7 6 7 8 8 7 7 6 6 4 4 5 5 4 4 5 6 3 2 3 4 3 3 6 7 6 7 11 8 5 6 7 9 10 9 9 9 9 10 11 13
23 22 20 18 15 12 10 10 11 13 13 12 16 16 11 5 2 0 1 1 4 4 4 10 6 6 12 10 12 10 1 4 4 8 18 16 9 5 3 4 4 6 8 9 8 7 9 8 2 4 6 8 8 7 6 7 4 4 4 7 7 6 7 6 1 3 4 5 3 1 3 7 4 5 9 4 1 6 5 7 11 10 7 8 9 10 10 10
26 23 22 21 17 14 12 8 11 14 12 13 17 16 14 9 3 2 2 3 5 3 1 5 4 8 13 10 10 6 1 5 2 10 21 19 11 5 3 4 2 5 8 6 4 4 5 7 6 5 6 8 8 7 6 7 5 3 5 6 8 8 7 6 2 1 1 5 3 3 2 7 6 5 9 6 5 9 7 7 11 9 8 10 10 10 10 10
28 25 25 24 20 20 14 6 12 15 9 11 14 14 15 11 6 4 2 3 5 3 5 3 2 7 10 10 13 8 3 4 3 6 13 13 8 2 2 6 3 4 4 3 3 4 4 8 8 8 7 7 7 6 6 7 7 4 5 4 6 7 7 6 4 2 3 3 4 2 2 5 9 7 7 8 9 11 9 10 11 9 9 9 9 9 11 11
31 28 27 26 25 27 18 10 17 19 11 6 6 15 17 13 9 3 4 0 4 3 4 1 1 4 5 9 14 8 2 3 6 2 1 4 4 1 3 8 6 7 5 5 6 4 2 8 9 10 8 6 6 5 6 9 6 6 5 5 5 5 5 4 4 2 1 2 4 3 2 3 9 6 2 4 7 10 11 13 14 12 11 9 9 9 10 10
33 30 30 28 27 28 21 14 17 19 18 9 5 16 18 12 7 3 4 3 2 2 2 1 2 2 4 7 9 5 2 3 3 3 2 3 1 2 3 6 4 7 5 5 7 3 1 6 7 8 7 6 4 1 3 8 6 4 3 6 6 4 4 5 4 3 3 2 5 6 4 3 8 5 2 1 4 9 11 12 12 12 12 11 9 9 9 9
36 33 32 30 28 30 26 20 19 17 17 13 10 18 17 8 4 3 2 3 1 0 0 2 2 3 8 9 5 2 3 3 1 1 2 1 2 4 1 1 4 4 2 3 1 2 1 1 1 3 4 5 5 3 1 3 5 5 6 6 7 6 5 4 3 4 2 5 6 9 10 7 6 4 4 4 5 7 8 8 8 8 11 12 10 9 9 8
40 36 34 34 33 34 26 20 23 19 15 16 16 17 12 3 1 4 6 1 2 1 2 1 2 5 12 13 7 4 4 2 2 4 3 2 1 3 1 1 3 2 2 4 3 4 4 2 1 0 2 4 6 4 3 3 3 6 5 5 3 4 4 4 4 4 1 7 6 10 12 10 8 6 3 5 5 5 6 7 7 9 11 12 11 10 10 9
42 38 38 38 35 35 27 21 26 23 17 20 19 12 7 3 2 6 5 1 1 3 4 4 4 6 10 11 8 8 6 2 4 6 5 4 4 5 5 5 5 2 3 5 3 4 3 3 3 1 1 4 6 3 3 5 4 5 5 6 3 2 3 3 2 0 4 7 4 7 8 6 9 9 6 9 10 7 6 6 7 9 11 11 11 11 11 10
44 41 41 41 38 37 31 24 28 26 22 24 17 4 3 5 7 9 8 4 2 2 3 4 5 8 11 8 5 5 4 2 5 5 3 4 5 6 5 4 6 4 3 6 4 2 3 5 1 2 3 3 8 7 3 2 2 5 6 6 5 3 1 3 4 2 4 6 4 3 5 3 6 6 10 15 14 9 5 5 7 8 11 11 11 11 10 10
44 43 43 43 41 39 34 28 28 29 28 22 11 4 5 7 8 11 13 11 4 2 2 3 5 7 8 5 4 6 4 2 6 6 3 5 5 6 4 6 8 4 3 4 3 5 5 6 4 8 3 6 11 9 6 6 5 5 5 6 5 5 4 4 4 3 4 4 4 1 3 4 3 3 7 9 8 5 2 4 2 3 6 8 8 9 10 10
44 46 44 41 41 40 39 33 29 31 28 15 6 7 10 9 8 11 14 12 6 2 3 5 7 6 5 2 2 7 5 2 6 6 4 6 6 7 7 8 12 8 4 4 2 4 6 7 6 6 2 9 12 6 6 8 3 3 3 5 3 5 5 3 2 4 2 2 3 2 4 5 4 5 6 3 4 4 4 2 4 4 5 7 7 9 10 10
43 44 40 37 38 40 42 37 30 32 24 9 6 9 11 11 9 9 8 8 10 5 4 5 4 4 5 3 3 6 3 3 6 5 4 5 4 6 7 6 11 12 9 7 3 3 5 4 3 2 2 5 8 4 4 5 4 2 2 4 4 4 5 2 3 1 2 3 4 4 5 5 3 8 8 4 2 4 4 2 5 5 6 8 8 9 10 10
41 35 30 31 37 41 45 40 34 32 20 8 11 11 10 12 8 6 5 7 13 11 7 5 4 6 7 4 4 6 2 2 5 5 3 4 3 7 9 4 8 16 14 7 2 3 5 2 3 2 1 3 2 3 3 1 4 6 4 5 2 2 2 2 1 3 2 4 5 3 7 5 2 6 4 5 3 8 7 5 4 4 7 9 9 9 10 10
30 21 18 29 40 43 46 44 36 25 10 6 11 10 9 13 10 6 5 7 11 11 8 9 7 7 8 7 6 7 6 3 6 6 4 4 4 8 12 6 7 17 17 8 2 3 4 2 3 0 2 2 2 4 3 3 2 5 4 4 4 2 1 2 2 2 2 4 5 3 6 6 7 6 1 5 8 11 10 7 6 8 10 10 9 9 9 9
15 7 6 22 37 41 48 48 33 15 4 5 10 10 9 12 9 6 5 5 9 11 11 12 7 5 7 8 7 7 8 7 8 6 4 5 5 6 13 9 7 14 16 11 6 2 2 3 3 1 1 1 2 2 4 3 0 2 1 2 2 2 3 4 3 2 3 3 5 4 3 5 7 7 8 10 13 14 12 9 10 12 13 11 10 10 10 11
5 2 2 15 33 41 47 40 20 6 5 7 9 9 7 6 6 7 10 8 6 7 9 11 9 7 8 9 9 8 7 6 8 7 4 6 5 4 9 9 6 9 14 14 9 2 2 3 3 1 2 1 2 4 8 10 7 3 3 4 2 1 2 1 2 3 4 3 3 5 8 7 4 5 10 13 13 14 13 12 12 13 12 11 10 11 11 12
2 3 2 11 32 43 38 21 7 6 9 9 11 11 7 3 4 10 14 11 5 1 3 7 10 10 8 8 9 8 7 6 7 7 4 6 6 4 6 10 10 10 10 10 9 5 4 3 3 2 2 4 5 6 6 7 7 6 7 8 8 6 4 1 4 3 3 4 4 3 9 11 4 4 8 11 12 12 12 13 13 11 12 12 11 12 13 12
2 6 4 11 34 42 24 8 7 8 8 10 10 8 6 3 3 7 11 10 8 4 1 2 8 11 8 8 7 7 7 6 8 8 6 8 10 7 8 11 13 13 12 10 12 8 4 3 4 3 4 5 5 5 1 3 3 2 3 5 7 7 7 6 7 4 3 4 4 2 7 10 1 2 4 6 8 8 9 11 11 10 11 11 11 12 12 11
3 6 2 12 38 38 13 6 11 8 8 10 7 4 6 6 4 6 11 12 10 7 4 2 4 8 7 6 7 8 9 7 9 11 8 8 11 9 9 12 13 14 11 8 8 4 4 3 4 1 1 1 3 5 4 4 4 2 3 5 7 8 8 6 5 3 3 6 4 2 7 8 1 2 3 3 4 4 5 9 10 9 8 9 11 11 11 11
4 5 1 12 39 33 8 7 12 9 10 11 8 8 8 7 7 8 11 14 11 7 7 6 4 5 5 4 4 7 9 7 9 12 9 6 7 7 10 14 13 13 10 7 8 6 3 4 4 2 1 2 2 3 4 3 2 3 5 6 8 9 7 2 1 1 4 9 8 5 10 8 1 3 4 4 4 3 4 6 8 8 7 8 10 9 10 10
2 3 0 10 28 23 8 8 11 9 11 13 13 13 11 6 8 11 10 10 10 7 8 9 5 3 1 3 4 2 5 4 4 6 6 4 4 3 7 14 15 13 9 8 11 9 5 5 6 6 6 7 7 5 3 3 4 3 4 7 10 12 12 7 2 4 10 8 9 9 13 6 2 4 5 4 3 4 6 5 5 7 7 7 8 8 9 11
2 4 2 5 11 11 8 8 9 9 11 13 11 12 14 11 8 10 10 9 11 10 8 6 4 3 2 2 3 2 5 4 3 1 3 4 3 2 1 7 13 15 11 11 12 8 3 4 8 11 11 12 12 9 4 8 7 7 10 12 14 15 15 10 6 9 9 2 5 14 15 11 8 3 4 6 4 5 7 5 6 7 7 7 8 9 9 10
3 4 5 4 4 6 7 7 7 8 11 13 8 7 16 17 9 7 9 9 10 11 10 5 3 5 7 6 5 5 5 4 4 4 5 5 4 2 3 3 3 6 5 10 11 6 4 5 10 15 15 16 18 14 7 10 11 13 14 14 15 15 15 14 14 15 7 3 10 16 10 13 18 9 7 10 6 6 8 8 9 7 6 7 7 8 9 10
4 4 5 6 4 5 7 8 9 9 10 13 9 7 13 18 12 8 9 10 9 8 7 5 7 11 14 13 10 8 6 5 5 8 8 6 4 2 1 2 3 6 5 3 7 3 4 7 11 15 17 18 21 19 11 10 9 11 13 16 17 17 19 20 21 19 10 7 18 16 9 16 21 11 11 12 9 10 13 11 8 5 5 6 7 8 10 11
4 2 3 4 5 5 6 8 10 11 11 10 9 10 12 16 17 13 7 6 7 8 9 10 14 18 16 13 10 9 10 9 9 12 11 8 6 5 2 2 2 2 2 2 5 1 2 6 9 12 14 16 21 20 12 9 7 7 11 15 17 20 24 24 21 20 16 16 23 20 14 21 18 7 10 12 10 10 7 4 5 6 7 8 9 11 12 12
2 1 2 2 4 5 3 4 7 9 10 8 8 10 11 15 18 14 8 8 10 10 13 16 19 17 15 14 13 14 15 15 16 16 9 8 7 6 5 4 3 1 1 1 3 1 1 4 4 5 6 12 18 16 9 8 8 9 9 13 17 19 19 17 16 17 16 18 24 21 18 20 11 6 8 8 6 4 2 5 8 8 8 9 10 11 12 12
5 2 1 1 4 6 5 3 6 7 8 8 7 6 9 13 16 13 10 11 12 10 14 21 22 14 12 15 15 18 20 17 17 13 6 7 8 5 5 5 5 4 2 2 2 0 2 2 1 4 3 11 14 10 8 7 6 8 13 20 21 15 10 11 14 15 15 18 21 16 15 18 9 6 6 5 6 7 8 10 10 8 8 11 12 13 13 12
6 4 2 2 3 7 7 4 6 7 6 7 9 8 9 11 12 12 8 7 10 11 11 17 19 10 8 14 18 20 18 12 9 5 4 5 4 3 3 3 6 6 5 5 2 2 3 3 1 3 5 10 8 4 5 3 3 8 15 22 21 13 11 13 14 16 18 17 15 13 15 17 8 6 7 7 7 10 10 9 9 9 9 10 12 13 12 11
Wind_Direction
247 39 82 105 67 338 56 73 29 244 199 208 202 184 182 174 186 191 212 226 240 256 262 277 289 302 314 321 323 326 334 341 350 19 34 267 280 176 143 85 99 81 42 14 8 9 6 9 356 359 8 350 32 4 355 8 52 57 73 79 58 205 16 290 184 175 153 142 187 191 115 120 149 304 155 53 63 85 65 59 53 50 72 98 113 112 97 93
189 70 65 97 41 27 62 55 22 318 333 294 215 166 171 175 197 197 209 226 238 250 261 280 294 305 314 320 320 328 334 336 358 40 15 300 126 135 133 106 105 81 22 22 22 14 9 353 336 357 26 0 330 20 14 343 58 73 101 81 180 185 31 313 123 96 118 146 169 138 94 120 159 172 107 103 112 112 84 66 73 74 78 93 104 105 97 92
128 57 33 39 7 10 8 358 355 319 318 268 238 162 163 175 199 201 211 226 235 246 267 283 296 308 313 314 318 329 334 338 34 0 25 108 112 120 116 103 94 62 27 35 24 3 351 315 316 342 43 0 297 55 45 359 44 85 99 77 249 191 79 5 62 68 108 141 134 108 86 109 173 173 111 154 134 114 126 151 140 131 138 127 109 104 100 90
156 136 35 23 8 0 347 338 344 327 311 255 212 192 176 168 187 202 211 222 240 256 270 282 297 306 309 309 316 328 336 12 120 245 128 123 117 118 111 97 78 56 34 35 18 349 331 313 314 342 60 2 319 48 57 348 40 60 99 140 223 161 88 349 65 74 65 104 122 133 88 89 240 184 124 143 118 103 194 203 190 165 155 149 133 107 102 94
185 178 186 321 335 348 328 284 317 344 326 311 254 206 188 174 197 207 214 230 244 258 270 283 294 297 303 305 313 326 352 62 212 206 142 136 128 122 111 95 77 46 28 23 355 337 319 311 337 33 61 20 343 39 12 290 92 65 84 163 185 100 111 251 101 67 52 86 102 110 97 125 227 353 146 143 162 218 194 179 150 141 144 147 138 115 104 98
210 206 217 267 282 318 319 286 311 336 330 332 332 285 254 242 274 269 251 256 252 261 274 282 293 294 299 302 311 328 42 98 223 182 156 147 136 127 114 100 76 31 16 9 354 351 334 336 21 25 52 64 68 99 266 299 84 96 292 65 40 77 134 208 116 63 80 88 93 124 148 149 81 312 219 146 186 196 155 143 127 125 134 133 125 117 109 108
227 240 245 265 305 319 323 324 325 324 327 336 323 306 302 302 310 292 269 268 265 270 281 287 295 293 301 309 317 356 107 223 211 172 167 148 141 134 123 107 70 31 14 12 7 10 5 16 22 329 65 56 104 125 228 332 62 99 240 352 10 73 125 155 157 137 98 109 151 129 115 144 140 229 114 125 191 156 134 130 129 131 127 122 117 117 119 121
236 244 254 270 296 316 322 324 326 321 325 333 318 300 294 298 292 289 276 273 272 276 281 289 298 295 312 326 343 23 27 225 178 173 173 146 141 139 137 130 96 36 22 16 5 6 6 24 20 46 58 39 104 95 16 26 33 78 126 284 326 35 155 157 153 150 137 166 170 96 113 225 187 189 168 174 181 150 138 129 130 131 118 118 121 123 123 117
239 243 255 263 271 297 315 319 320 317 319 325 317 304 293 295 292 287 277 276 272 274 285 294 295 299 323 352 80 51 292 190 165 173 170 150 145 146 160 168 160 127 23 346 349 16 21 41 19 58 90 268 81 70 42 63 22 197 146 285 326 282 224 163 158 174 182 203 147 108 259 263 232 194 261 194 172 160 138 136 140 127 116 122 126 130 126 115
260 258 261 263 264 280 302 313 315 313 314 311 305 302 289 288 293 286 276 278 272 276 292 292 292 304 330 15 77 109 230 171 165 172 171 166 163 165 187 200 179 162 17 314 8 44 80 99 343 118 132 336 41 68 70 98 185 203 108 351 290 265 264 180 188 201 185 212 176 163 234 276 294 200 243 200 165 160 137 147 154 129 133 136 123 126 126 117
274 266 260 262 263 271 289 303 311 308 307 304 296 294 287 286 293 291 288 279 271 280 288 290 299 305 331 64 100 187 201 173 171 168 172 177 176 185 193 193 182 168 32 358 36 54 67 24 4 54 104 29 40 40 27 121 168 145 86 347 299 286 291 224 210 211 165 214 185 159 218 292 8 251 226 177 160 159 146 158 161 140 149 144 132 126 122 118
276 269 263 264 262 262 273 289 302 305 307 305 292 287 286 284 287 287 288 272 272 281 279 291 312 313 15 79 157 208 194 181 169 159 168 173 175 183 173 172 172 165 95 54 49 39 36 12 39 66 145 125 84 42 352 235 154 101 90 349 301 335 315 240 218 193 156 188 172 135 335 294 222 238 212 152 157 157 149 161 166 156 158 150 142 133 127 124
277 275 272 274 272 263 258 273 288 302 308 301 289 285 279 276 287 288 272 248 263 276 274 283 308 357 71 123 227 206 192 178 161 155 160 163 168 165 153 169 170 171 180 78 44 20 28 12 56 81 180 103 111 217 115 255 91 333 68 139 308 359 318 255 213 166 154 168 152 129 312 272 244 243 176 152 159 149 152 174 176 165 162 158 151 140 140 135
273 275 274 277 279 271 260 260 274 293 302 296 291 284 273 274 278 264 238 218 257 275 280 261 233 80 92 246 246 195 186 168 158 158 155 156 153 141 137 153 159 173 202 150 13 4 18 5 49 59 13 98 146 203 31 8 59 326 348 48 9 17 288 294 174 153 157 205 127 116 224 261 272 256 190 178 169 156 165 184 182 174 171 167 161 151 150 145
268 273 276 277 281 277 261 251 265 289 302 302 303 299 284 271 244 205 183 183 236 253 264 263 212 119 60 290 265 178 178 170 168 165 157 159 150 136 133 138 137 133 170 221 67 8 55 49 56 72 324 6 76 64 16 349 358 51 36 320 334 169 267 313 63 157 158 224 118 121 204 267 273 230 194 194 182 170 174 187 187 182 179 174 171 161 154 151
263 267 275 277 280 281 266 255 264 288 307 308 309 315 307 212 197 170 167 152 163 184 114 42 195 136 75 278 217 167 188 190 180 172 166 165 158 143 131 124 112 102 101 88 99 121 96 63 57 114 104 38 82 84 44 9 340 350 133 252 262 180 269 315 294 200 154 132 184 188 218 269 270 206 190 196 192 186 184 195 195 188 186 179 176 169 162 156
263 264 270 275 279 285 273 262 267 283 309 314 309 339 107 142 158 158 150 137 142 147 110 48 91 133 264 195 175 205 197 183 177 176 172 160 151 147 131 112 112 109 94 79 81 91 68 56 80 131 64 77 118 95 63 358 302 312 179 239 250 207 228 276 286 264 147 137 201 226 236 253 260 202 193 202 192 192 201 203 200 192 188 183 177 172 169 165
261 262 264 268 277 288 274 259 267 280 315 357 22 92 102 109 120 123 130 140 126 86 18 297 102 125 261 206 185 196 163 164 170 173 173 155 144 151 138 111 125 111 80 53 31 54 45 26 76 74 15 0 159 109 122 224 211 203 191 217 265 258 231 221 255 236 158 162 199 202 239 255 261 236 209 212 194 199 215 210 204 196 186 184 183 176 176 173
255 258 259 262 271 284 273 251 257 279 355 73 105 107 96 79 67 129 150 140 130 117 194 220 166 144 241 211 161 115 126 147 155 167 172 158 150 158 144 121 120 99 85 56 341 123 107 44 59 106 219 218 199 169 187 206 183 176 180 174 205 251 272 238 239 220 165 169 219 206 223 246 253 248 225 217 202 207 224 225 214 202 189 186 187 183 180 176
252 253 257 257 261 274 274 255 247 254 336 123 101 92 101 77 41 292 238 192 216 221 217 192 190 168 101 164 127 118 124 131 131 166 168 161 153 147 122 94 88 57 95 147 208 232 118 118 178 200 209 206 201 202 208 207 197 211 220 216 211 218 269 268 254 246 156 152 237 222 225 246 250 250 236 212 200 212 225 229 220 203 195 193 190 188 180 172
248 248 253 253 254 262 271 265 244 228 239 189 76 57 148 141 147 211 231 244 249 251 268 234 209 230 118 158 154 143 131 100 45 160 164 163 148 141 149 94 99 21 222 158 154 0 117 172 220 222 213 203 204 210 216 222 230 244 244 252 258 231 254 272 263 257 156 170 258 253 248 258 253 253 247 195 186 215 216 216 218 206 200 197 190 186 170 152
243 245 246 246 248 251 265 265 229 206 226 218 249 255 245 130 126 115 148 269 267 244 247 251 243 269 264 170 171 160 114 92 115 194 173 162 149 157 171 115 133 206 213 117 86 137 182 228 239 232 217 207 226 226 216 220 226 236 232 222 251 253 268 298 314 310 66 180 261 288 278 265 258 255 253 206 196 217 214 210 213 201 198 197 188 180 161 152
238 239 239 241 240 241 257 242 196 207 222 210 223 218 204 85 97 67 123 145 293 239 225 235 234 235 217 183 184 174 147 156 162 225 189 162 155 179 150 142 172 187 164 152 159 174 203 244 238 225 212 208 238 256 235 221 221 221 203 182 234 252 248 278 299 300 291 232 260 305 300 270 265 264 256 232 214 222 221 218 221 207 201 198 188 179 167 165
233 231 232 234 230 232 238 205 190 219 218 216 229 203 149 132 124 59 103 180 281 255 216 207 210 214 200 188 184 179 198 189 161 194 190 169 143 161 156 164 173 166 193 196 185 193 213 229 221 194 199 206 223 249 231 209 239 247 195 185 211 223 213 229 274 324 336 336 322 333 316 278 257 251 256 258 230 231 229 218 226 225 207 188 178 179 174 171
229 225 225 223 222 218 201 194 212 222 209 223 234 204 174 186 216 344 73 350 268 277 250 204 202 206 191 176 174 171 198 232 193 173 181 177 154 141 180 177 162 185 207 201 191 218 231 231 217 157 194 208 211 228 212 183 216 276 233 204 207 212 223 232 279 34 6 324 305 62 314 281 272 244 257 294 244 230 222 207 220 219 196 179 179 183 177 174
228 224 220 216 213 196 184 199 216 206 200 228 231 203 188 191 205 228 126 21 274 260 152 182 185 189 181 165 156 136 25 252 236 157 171 183 177 138 168 181 145 198 198 185 197 236 221 207 208 196 193 200 208 227 221 176 170 254 248 208 208 216 227 230 218 63 261 268 289 98 165 273 290 260 252 259 244 239 226 219 225 215 197 192 188 182 175 174
228 224 217 215 204 184 182 195 189 182 191 237 229 198 193 191 196 227 98 21 279 192 141 191 194 170 169 164 153 131 224 217 88 139 168 185 199 101 158 187 165 193 178 145 229 258 175 174 194 199 189 190 199 221 221 167 146 233 249 177 179 204 216 215 185 177 217 252 322 13 138 269 281 265 243 227 235 252 244 234 233 218 208 201 190 182 177 177
225 222 215 214 204 191 186 168 170 182 194 222 209 184 187 192 198 204 93 155 271 131 133 230 149 137 142 160 157 143 234 162 115 201 195 151 196 48 185 199 176 186 178 157 214 274 154 166 183 184 184 193 199 219 198 155 151 240 233 129 131 163 170 142 120 141 293 358 306 281 135 263 271 266 253 204 222 250 247 236 231 217 209 201 192 188 180 177
223 219 214 211 206 200 197 178 173 197 209 202 178 179 179 183 186 90 82 191 252 93 128 144 132 122 111 147 169 154 41 46 127 231 0 100 155 44 185 201 152 175 206 191 205 256 176 183 181 166 175 197 195 230 172 161 187 218 139 84 67 70 75 75 92 89 29 331 242 220 174 240 268 243 189 188 227 242 243 240 232 214 204 201 192 186 178 172
222 218 215 206 201 199 202 210 205 201 206 204 188 176 169 167 153 104 173 215 259 258 84 120 166 162 145 150 182 174 88 39 58 94 57 103 25 19 162 164 84 132 251 326 247 252 302 253 182 142 169 177 144 90 61 174 181 138 90 58 39 23 31 42 51 77 47 274 231 199 186 201 267 262 186 203 223 221 227 244 239 205 197 200 192 183 178 170
222 218 212 204 199 194 194 215 209 187 191 198 180 166 160 136 98 169 198 242 344 196 126 150 182 146 158 160 170 178 127 75 146 138 142 155 71 33 53 84 70 81 316 325 319 313 341 355 239 234 162 122 98 79 16 11 95 101 88 80 60 349 13 22 3 56 206 258 229 199 190 189 234 260 228 234 252 232 216 230 231 206 199 198 191 183 178 170
222 217 211 206 202 195 193 202 189 173 181 185 167 160 168 145 190 218 207 80 326 205 156 172 187 161 169 172 176 174 144 125 174 161 157 157 171 185 188 186 169 152 246 234 256 316 312 239 220 323 275 136 113 97 11 359 30 90 108 110 118 287 356 3 309 180 224 257 250 195 178 195 236 251 254 257 267 254 221 225 230 209 200 195 186 182 177 171
221 215 210 207 202 199 199 193 179 172 175 172 160 161 209 178 192 206 203 191 208 199 141 141 164 164 164 170 187 168 124 138 179 169 155 144 175 209 229 231 192 176 198 190 195 218 272 297 243 166 281 191 157 161 185 246 170 146 141 138 155 181 261 262 245 256 255 266 283 185 160 230 270 266 244 245 257 256 232 247 244 210 195 190 182 176 173 173
221 213 208 207 204 203 201 191 184 179 169 160 157 175 193 204 202 193 206 218 202 99 95 123 127 147 164 175 191 163 143 191 173 156 148 145 173 216 233 246 222 201 103 149 187 183 208 286 209 181 213 188 185 190 168 141 157 178 149 136 154 157 181 225 207 225 258 276 297 259 160 201 220 249 239 243 269 288 302 281 246 175 176 167 161 163 168 176
220 211 207 204 203 204 198 194 193 184 169 156 168 187 186 203 207 198 211 214 194 93 64 118 116 130 186 236 223 175 159 191 175 156 165 170 184 202 196 212 209 190 139 171 215 167 192 256 224 185 161 169 186 195 128 112 142 228 116 117 182 183 184 232 207 186 206 297 284 217 215 221 212 260 262 262 302 318 344 348 132 132 142 142 154 169 173 180
213 207 206 199 200 201 195 196 197 183 173 164 184 194 199 205 199 197 205 188 188 186 104 117 116 135 195 217 224 203 153 118 166 167 196 197 205 206 201 210 196 189 185 178 184 157 178 270 271 93 58 177 186 175 143 151 176 174 133 172 203 173 163 215 273 5 63 282 261 194 242 285 307 275 251 193 256 288 311 276 171 166 158 159 177 182 179 183
205 200 202 198 200 198 193 195 193 182 178 184 197 200 206 214 206 183 179 169 182 178 144 178 188 158 185 194 203 207 170 109 167 174 190 196 228 211 203 218 187 194 204 185 178 195 161 249 285 117 150 244 206 114 86 30 139 132 184 202 148 69 98 127 257 341 32 264 270 202 234 264 259 267 254 141 211 258 257 238 204 185 180 187 194 187 185 183
204 199 203 204 201 195 191 192 188 182 182 194 211 219 210 216 215 187 177 163 169 169 175 210 202 159 176 189 190 191 181 170 176 182 185 191 241 207 188 200 192 197 205 191 206 244 153 193 291 125 185 275 10 109 95 0 97 134 191 195 119 116 201 127 183 238 191 251 285 244 230 234 213 224 183 162 212 235 236 220 208 206 199 201 199 187 184 176
206 206 225 209 201 193 189 188 184 185 202 190 208 224 218 216 209 194 211 183 166 174 194 209 199 172 184 180 172 179 187 187 172 176 187 188 232 208 179 188 200 196 196 186 198 235 144 199 255 323 221 260 24 132 165 204 278 62 103 170 113 136 174 165 180 173 160 229 278 276 253 238 218 197 178 193 210 217 217 205 210 216 207 202 197 184 182 181
194 222 284 200 196 192 187 185 181 188 210 202 207 215 219 219 196 204 233 226 182 179 204 205 188 187 196 178 167 173 189 194 175 181 206 192 216 236 188 178 177 183 186 188 197 177 120 210 218 314 330 192 181 196 188 186 182 154 151 175 178 123 117 180 218 158 148 190 236 265 271 259 227 185 185 194 206 212 208 200 211 220 210 203 196 185 186 188
149 217 264 193 193 187 180 182 197 198 198 208 219 222 222 222 187 202 225 239 248 224 197 195 189 194 196 180 176 174 175 188 184 189 220 206 206 238 203 177 163 162 168 187 205 195 185 197 162 159 230 208 222 239 212 189 180 178 183 184 181 168 142 188 249 211 157 200 200 212 272 268 230 182 195 194 203 211 204 200 212 218 208 203 197 190 191 189
168 213 214 185 185 179 171 189 207 193 203 207 212 216 203 201 201 193 205 228 253 260 233 195 196 200 199 185 181 173 166 181 192 195 217 215 208 215 207 185 167 160 160 181 203 194 146 128 151 180 201 207 244 273 257 135 123 133 186 183 177 181 173 185 228 220 158 234 225 151 277 276 244 164 227 217 217 217 204 201 210 217 209 202 197 192 192 191
210 215 218 179 181 176 173 213 194 193 219 213 213 202 183 198 205 182 189 204 219 221 220 226 188 200 208 189 173 173 175 185 195 199 212 219 216 213 198 182 166 164 167 178 195 175 78 113 176 209 353 18 332 333 3 45 86 109 222 189 182 203 200 194 213 183 164 225 202 159 259 266 332 352 297 293 272 243 213 206 208 217 212 197 196 192 187 187
195 206 319 184 183 181 189 209 192 197 208 210 222 212 202 207 198 192 194 198 204 203 210 218 189 194 212 177 147 170 185 197 204 206 208 210 227 221 189 181 171 171 183 181 174 169 159 172 155 124 310 325 340 332 338 337 173 200 225 196 193 209 205 215 282 119 244 229 174 183 249 246 295 328 329 357 340 302 263 229 213 216 211 197 195 189 183 180
168 199 228 187 187 190 214 212 194 197 198 203 213 210 212 213 199 206 203 199 209 203 208 219 191 151 170 124 102 147 195 196 196 219 221 205 245 251 189 190 184 184 198 186 167 162 166 176 156 160 206 223 228 226 209 192 182 210 223 189 194 203 196 201 218 214 241 229 161 200 244 248 11 337 312 327 334 292 286 274 236 225 215 198 187 183 182 181
180 207 198 188 194 204 228 218 198 198 199 202 209 211 213 214 206 203 197 205 217 208 217 230 173 146 178 130 119 192 218 194 140 215 247 203 230 303 210 206 199 198 194 166 157 145 128 190 181 181 201 218 234 241 169 139 157 201 211 194 196 204 197 195 214 222 226 193 188 225 238 254 268 266 272 275 247 244 267 261 242 233 213 197 187 183 183 183
200 206 189 180 206 223 234 232 211 202 197 195 195 198 206 212 211 187 188 208 212 203 217 227 167 184 205 201 210 218 216 202 174 213 232 216 236 291 0 351 258 240 199 159 164 142 115 195 195 192 206 221 238 245 187 153 182 201 203 200 201 202 196 195 214 223 199 125 248 240 215 243 255 231 223 246 224 226 246 235 234 232 207 197 182 174 178 177
214 207 188 181 194 211 223 229 223 216 202 192 190 190 200 209 206 185 192 208 203 196 205 206 205 212 209 206 214 219 215 210 215 229 225 214 222 230 321 2 328 326 355 164 197 154 131 197 200 200 214 223 235 241 210 179 200 203 199 204 203 198 199 204 215 222 198 192 248 248 193 229 250 230 216 229 205 213 229 219 214 205 185 183 166 172 186 183
235 233 219 206 208 204 207 211 211 220 216 195 196 203 199 204 207 200 188 185 194 200 196 204 215 214 210 205 203 213 217 208 220 232 220 202 199 189 215 274 247 289 343 198 221 208 156 209 202 198 216 228 235 238 216 187 206 218 209 210 208 203 204 206 213 220 214 219 242 248 234 245 252 212 208 225 209 215 223 177 179 190 185 179 175 187 196 192
232 249 239 235 231 212 195 180 179 206 218 199 201 213 204 205 208 204 190 177 186 192 192 210 220 210 203 203 201 217 219 207 220 230 206 188 206 194 200 218 183 141 15 216 251 322 193 227 203 167 208 238 242 240 217 193 212 234 235 226 220 215 211 211 215 220 220 228 240 247 252 259 253 176 202 222 189 176 165 177 201 206 190 180 184 198 199 198
231 281 220 203 235 208 192 161 156 187 211 195 196 210 211 214 208 200 204 201 197 188 186 208 219 208 199 205 207 222 224 214 226 234 181 175 208 199 203 201 155 131 138 191 220 119 159 222 28 86 196 245 249 236 211 206 223 247 255 245 233 218 206 213 219 217 215 226 239 245 252 257 245 174 197 195 156 181 204 206 213 211 193 185 191 201 201 198
218 266 239 206 249 213 196 182 172 189 203 190 191 193 203 222 211 196 202 212 212 210 197 208 216 202 197 211 214 225 229 221 226 224 142 147 165 137 155 163 139 145 166 176 167 118 158 191 183 136 210 250 254 192 167 178 218 241 248 246 238 215 199 213 224 224 217 218 229 231 238 250 240 171 204 210 190 205 212 206 210 207 195 193 198 201 198 194